TimeCST,TemperatureF,Dew PointF,Humidity,Sea Level PressureIn,VisibilityMPH,Wind Direction,Wind SpeedMPH,Gust SpeedMPH,PrecipitationIn,Events,Conditions,WindDirDegrees,DateUTC
12:15 AM,32.0,28.9,88,29.88,10.0,NW,23.0,27.6,N/A,,Overcast,320,2013-12-29 06:15:00
12:35 AM,30.9,27.9,88,29.88,10.0,NNW,25.3,33.4,N/A,,Overcast,330,2013-12-29 06:35:00
12:55 AM,30.0,27.1,89,29.89,7.0,NW,21.9,29.9,N/A,,Overcast,320,2013-12-29 06:55:00
1:15 AM,28.2,25.3,89,29.90,10.0,NNW,26.5,34.5,N/A,,Overcast,330,2013-12-29 07:15:00
1:35 AM,26.6,23.9,90,29.91,10.0,NW,24.2,29.9,N/A,,Overcast,310,2013-12-29 07:35:00
1:55 AM,25.2,22.3,89,29.93,10.0,NW,25.3,31.1,N/A,,Overcast,320,2013-12-29 07:55:00
2:15 AM,23.2,20.1,88,29.94,10.0,NW,23.0,29.9,N/A,,Overcast,320,2013-12-29 08:15:00
2:35 AM,21.7,18.5,87,29.96,10.0,NW,24.2,34.5,N/A,,Overcast,320,2013-12-29 08:35:00
2:55 AM,20.7,17.1,86,29.98,10.0,NW,25.3,31.1,N/A,,Overcast,320,2013-12-29 08:55:00
3:15 AM,20.3,16.5,85,29.99,10.0,NW,20.7,32.2,N/A,,Overcast,320,2013-12-29 09:15:00
3:35 AM,19.9,15.8,84,29.99,10.0,NW,21.9,29.9,N/A,,Overcast,320,2013-12-29 09:35:00
3:55 AM,19.2,15.3,85,29.99,10.0,NW,25.3,33.4,N/A,,Overcast,320,2013-12-29 09:55:00
4:15 AM,18.3,14.4,85,29.99,10.0,NW,20.7,29.9,N/A,,Overcast,310,2013-12-29 10:15:00
4:35 AM,17.6,13.1,83,30.00,10.0,NW,24.2,31.1,N/A,,Overcast,320,2013-12-29 10:35:00
4:55 AM,17.4,12.7,82,30.01,10.0,NW,23.0,-,N/A,,Overcast,320,2013-12-29 10:55:00
5:15 AM,16.5,12.0,82,30.02,10.0,NW,24.2,29.9,N/A,,Overcast,320,2013-12-29 11:15:00
5:35 AM,15.8,11.1,82,30.03,10.0,NW,27.6,34.5,N/A,Snow,Light Snow,320,2013-12-29 11:35:00
5:55 AM,15.6,10.8,81,30.05,10.0,NW,27.6,32.2,N/A,,Overcast,320,2013-12-29 11:55:00
6:15 AM,14.9,10.2,82,30.05,7.0,NNW,27.6,31.1,N/A,Snow,Light Snow,330,2013-12-29 12:15:00
6:35 AM,14.2,9.5,82,30.06,10.0,NW,24.2,38.0,N/A,,Overcast,320,2013-12-29 12:35:00
6:55 AM,14.0,9.0,80,30.08,10.0,NW,21.9,31.1,N/A,,Overcast,320,2013-12-29 12:55:00
7:15 AM,13.6,8.4,80,30.09,10.0,NW,27.6,32.2,N/A,,Overcast,320,2013-12-29 13:15:00
7:35 AM,12.9,7.5,79,30.10,10.0,NW,26.5,34.5,N/A,,Overcast,320,2013-12-29 13:35:00
7:55 AM,12.2,6.8,79,30.10,10.0,NW,26.5,38.0,N/A,,Overcast,320,2013-12-29 13:55:00
8:15 AM,11.3,5.9,79,30.11,10.0,NNW,31.1,35.7,N/A,Snow,Light Snow,330,2013-12-29 14:15:00
8:35 AM,11.3,5.9,79,30.13,7.0,NW,28.8,36.8,N/A,Snow,Light Snow,320,2013-12-29 14:35:00
8:55 AM,11.3,6.3,80,30.14,10.0,NNW,24.2,33.4,N/A,,Overcast,330,2013-12-29 14:55:00
9:15 AM,11.3,5.9,79,30.15,7.0,NNW,26.5,32.2,N/A,,Overcast,330,2013-12-29 15:15:00
9:35 AM,10.8,5.2,78,30.17,10.0,NW,25.3,33.4,N/A,,Overcast,320,2013-12-29 15:35:00
9:55 AM,10.0,4.3,78,30.17,10.0,NW,25.3,-,N/A,,Overcast,320,2013-12-29 15:55:00
10:15 AM,9.3,3.9,79,30.19,10.0,NW,26.5,31.1,N/A,,Overcast,320,2013-12-29 16:15:00
10:35 AM,9.1,3.7,79,30.19,7.0,NW,25.3,31.1,N/A,,Overcast,320,2013-12-29 16:35:00
10:55 AM,9.1,3.6,78,30.20,7.0,NW,26.5,33.4,N/A,,Overcast,320,2013-12-29 16:55:00
11:15 AM,9.1,3.4,77,30.20,10.0,NW,26.5,31.1,N/A,,Overcast,320,2013-12-29 17:15:00
11:35 AM,8.1,2.7,79,30.20,10.0,NW,23.0,27.6,N/A,,Overcast,320,2013-12-29 17:35:00
11:55 AM,8.4,3.0,79,30.20,10.0,NW,19.6,25.3,N/A,,Overcast,320,2013-12-29 17:55:00
12:15 PM,9.9,4.1,78,30.20,10.0,NW,20.7,25.3,N/A,,Overcast,320,2013-12-29 18:15:00
12:35 PM,10.0,3.9,76,30.20,10.0,NW,17.3,-,N/A,,Overcast,320,2013-12-29 18:35:00
12:55 PM,10.4,4.1,76,30.19,10.0,NW,21.9,26.5,N/A,,Overcast,320,2013-12-29 18:55:00
1:15 PM,10.6,3.9,75,30.21,10.0,NW,23.0,-,N/A,,Scattered Clouds,320,2013-12-29 19:15:00
1:35 PM,10.6,3.9,75,30.21,10.0,NW,18.4,27.6,N/A,,Mostly Cloudy,320,2013-12-29 19:35:00
1:55 PM,10.9,4.3,75,30.21,10.0,NW,20.7,24.2,N/A,,Mostly Cloudy,320,2013-12-29 19:55:00
2:15 PM,10.2,3.4,74,30.21,10.0,NNW,23.0,28.8,N/A,,Scattered Clouds,330,2013-12-29 20:15:00
2:35 PM,10.4,3.2,73,30.22,10.0,NNW,21.9,-,N/A,,Clear,330,2013-12-29 20:35:00
2:55 PM,10.6,3.2,72,30.22,10.0,NNW,21.9,-,N/A,,Clear,330,2013-12-29 20:55:00
3:15 PM,10.8,2.8,70,30.23,10.0,NNW,17.3,24.2,N/A,,Clear,330,2013-12-29 21:15:00
3:35 PM,10.4,0.5,64,30.24,10.0,NNW,23.0,28.8,N/A,,Clear,330,2013-12-29 21:35:00
3:55 PM,10.0,-1.8,59,30.25,10.0,NNW,19.6,28.8,N/A,,Clear,330,2013-12-29 21:55:00
4:15 PM,9.5,-2.7,58,30.25,10.0,NNW,19.6,26.5,N/A,,Clear,330,2013-12-29 22:15:00
4:35 PM,9.0,-3.3,58,30.25,10.0,NNW,18.4,-,N/A,,Clear,330,2013-12-29 22:35:00
4:55 PM,8.4,-3.3,59,30.26,10.0,NNW,16.1,-,N/A,,Clear,330,2013-12-29 22:55:00
5:15 PM,7.7,-3.8,59,30.26,10.0,NW,13.8,-,N/A,,Clear,320,2013-12-29 23:15:00
5:35 PM,7.5,-3.8,60,30.27,10.0,NNW,13.8,20.7,N/A,,Clear,330,2013-12-29 23:35:00
5:55 PM,7.0,-3.6,62,30.28,10.0,NW,12.7,-,N/A,,Clear,320,2013-12-29 23:55:00
6:15 PM,6.8,-4.5,60,30.28,10.0,NW,18.4,21.9,N/A,,Clear,320,2013-12-30 00:15:00
6:35 PM,6.3,-5.3,59,30.29,10.0,NNW,13.8,-,N/A,,Clear,330,2013-12-30 00:35:00
6:55 PM,5.7,-5.3,61,30.29,10.0,NW,13.8,-,N/A,,Clear,320,2013-12-30 00:55:00
7:15 PM,5.0,-6.0,61,30.29,10.0,NW,15.0,-,N/A,,Clear,320,2013-12-30 01:15:00
7:35 PM,4.6,-6.3,61,30.29,10.0,NNW,11.5,-,N/A,,Scattered Clouds,330,2013-12-30 01:35:00
7:55 PM,4.1,-6.9,60,30.29,10.0,NW,12.7,-,N/A,,Scattered Clouds,320,2013-12-30 01:55:00
8:15 PM,3.4,-6.7,63,30.30,10.0,NNW,13.8,-,N/A,,Scattered Clouds,330,2013-12-30 02:15:00
8:35 PM,3.2,-6.9,63,30.30,10.0,NW,9.2,-,N/A,,Scattered Clouds,320,2013-12-30 02:35:00
8:55 PM,2.3,-6.7,66,30.30,10.0,NW,9.2,-,N/A,,Scattered Clouds,320,2013-12-30 02:55:00
9:15 PM,2.3,-7.8,63,30.30,10.0,NNW,11.5,-,N/A,,Clear,330,2013-12-30 03:15:00
9:35 PM,2.3,-8.5,61,30.30,10.0,NNW,10.4,-,N/A,,Clear,330,2013-12-30 03:35:00
9:55 PM,1.9,-8.5,62,30.31,10.0,NW,9.2,-,N/A,,Clear,320,2013-12-30 03:55:00
10:15 PM,1.4,-8.3,64,30.32,10.0,NW,9.2,-,N/A,,Scattered Clouds,320,2013-12-30 04:15:00
10:35 PM,0.9,-8.3,65,30.32,10.0,NW,9.2,-,N/A,,Scattered Clouds,320,2013-12-30 04:35:00
10:55 PM,0.5,-8.5,66,30.32,10.0,NNW,9.2,-,N/A,,Scattered Clouds,330,2013-12-30 04:55:00
11:15 PM,0.5,-9.0,64,30.31,10.0,NNW,9.2,-,N/A,,Scattered Clouds,340,2013-12-30 05:15:00
11:35 PM,0.3,-8.7,66,30.31,10.0,NNW,8.1,-,N/A,,Scattered Clouds,330,2013-12-30 05:35:00
11:55 PM,-0.2,-8.7,67,30.31,10.0,NW,8.1,-,N/A,,Scattered Clouds,320,2013-12-30 05:55:00